Location: Stuttgart
(48.8069°N, 9.1544°E)
Time: 03:09:20
(UTC+02:00)

ISS - Pass Details

Date: 14 May 2021
Orbit: 417 x 422 km, 51.6° (Epoch: 15 June)

Event Time Altitude Azimuth Distance (km) Brightness Sun altitude
Rises 22:47:53 0° 223° (SW) 2,354 -0.1 -14.4°
Reaches altitude 10° 22:50:04 10° 214° (SW) 1,495 -1.2 -14.6°
Maximum altitude 22:53:10 36° 146° (SSE) 690 -3.2 -14.9°
Enters shadow 22:54:58 20° 92° (E) 1,032 -2.1 -15.1°
Exits shadow 22:56:53 - 76° (ENE) 1,730 -0.8 -15.2°
Sets 22:58:30 0° 71° (ENE) 2,374 -0.1 -15.4°
